Tracking 20040 objects as of 19-Nov-2019
Live streaming from Space Station
objects crossing your sky now

BREEZE-KM R/B

Track BREEZE-KM R/B now!
10-day predictions


NORAD ID: 41580
Int'l Code: 2016-034B
Perigee: 663.5 km
Apogee: 967.7 km
Inclination: 99.1 °
Period: 101.1 minutes
Semi major axis: 7186 km
RCS: Unknown
Launch date: June 4, 2016
Source: Commonwealth of Independent States (former USSR) (CIS)
Launch site: PLESETSK MISSILE AND SPACE COMPLEX (PKMTR)

Note: This is a ROCKET BODY
aabbcc
Your satellite tracking list
Your tracking list is empty




NASA's NSSDC Master Catalog

Two Line Element Set (TLE):
1 41580U 16034B   19322.84146554 -.00000029  00000-0  85957-5 0  9997
2 41580  99.1007  43.4739 0211598 240.4339 117.5601 14.25007164179768
Source of the keplerian elements: AFSPC